SCP
0 0 0 0 0 0 0 0 0 0 0 0 0 0 0 0 0 0 0 0 0 0 0 0 0 0 0 0 0 0 0 0 0 0 0 0 0 0 0 0 0 0 0
0 0 0 0 0 0 0 0 0 0 0 0 0 0 0 0 0 0 0 0 0 0 0 0 0 0 0 0 0 0 0 0 0 0 0 0 0 0 0 0 0 0 0
0 0 0 0 0 0 0 0 0 0 0 0 0 0 0 0 0 0 0 0 0 0 0 0 0 0 0 0 0 0 0 0 0 0 0 0 0 0 0 0 0 0 0
0 0 0 0 0 0 0 0 0 0 0 0 0 0 0 0 0 0 0 0 0 0 0 0 0 0 0 0 0 0 0 0 0 0 0 0 0 0 0 0 0 0 0
0 0 0 0 0 0 0 0 0 0 0 0 0 0 0 0 0 0 0 0 0 0 0 0 0 0 0 0 0 0 0 0 0 0 0 0 0 0 0 0 0 0 0
0 0 0 0 0 0 0 0 0 0 0 0 0 0 0 0 0 0 0 0 0 0 0 0 0 0 0 0 0 0 0 0 0 0 0 0 0 0 0 0 0 0 0
0 0 0 0 0 0 0 0 0 0 0 0 0 0 0 0 0 0 0 0 0 0 0 0 0 0 0 0 0 0 0 0 0 0 0 0 0 0 0 0 0 0 0
0 0 0 0 0 0 0 0 0 0 0 0 0 0 0 0 0 0 0 0 0 0 0 0 0 0 0 0 0 0 0 0 0 0 0 0 0 0 0 0 0 0 0
0 0 0 0 0 0 0 0 0 0 0 0 0 0 0 0 0 0 0 0 0 0 0 0 0 0 0 0 0 0 0 0 0 0 0 0 0 0 0 0 0 0 0
0 0 0 0 0 0 0 0 0 0 0 0 0 0 0 0 0 0 0 0 0 0 0 0 0 0 0 0 0 0 0 0 0 0 0 0 0 0 0 0 0 0 0
0 0 0 0 0 0 0 0 0 0 0 0 0 0 0 0 0 0 0 0 0 0 0 0 0 0 0 0 0 0 0 0 0 0 0 0 0 0 0 0 0 0 0
0 0 0 0 0 0 0 0 0 0 0 0 0 0 0 0 0 0 0 0 0 0 0 0 0 0 0 0 0 0 0 0 0 0 0 0 0 0 0 0 0 0 0
0 0 0 0 0 0 0 0 0 0 0 0 0 0 0 0 0 0 0 0 0 0 0 0 0 0 0 0 0 0 0 0 0 0 0 0 0 0 0 0 0 0 0
0 0 0 0 0 0 0 0 0 0 0 0 0 0 0 0 0 0 0 0 0 0 0 0 0 0 0 0 0 0 0 0 0 0 0 0 0 0 0 0 0 0 0
0 0 0 0 0 0 0 0 0 0 0 0 0 0 0 0 0 0 0 0 0 0 0 0 0 0 0 0 0 0 0 0 0 0 0 0 0 0 0 0 0 0 0
0 0 0 0 0 0 0 0 0 0 0 0 0 0 0 0 0 0 0 0 0 0 0 0 0 0 0 0 0 0 0 0 0 0 0 0 0 0 0 0 0 0 0
0 0 0 0 0 0 0 0 0 0 0 0 0 0 0 0 0 0 0 0 0 0 0 0 0 0 0 0 0 0 0 0 0 0 0 0 0 0 0 0 0 0 0
0 0 0 0 0 0 0 0 0 0 0 0 0 0 0 0 0 0 0 0 0 0 0 0 0 0 0 0 0 0 0 0 0 0 0 0 0 0 0 0 0 0 0
0 0 0 0 0 0 0 0 0 0 0 0 0 0 0 0 0 0 0 0 0 0 0 0 0 0 0 0 0 0 0 0 0 0 0 0 0 0 0 0 0 0 0
0 0 0 0 0 0 0 0 0 0 0 0 0 0 0 0 0 0 0 0 0 0 0 0 0 0 0 0 0 0 0 0 0 0 0 0 0 0 0 0 0 0 0
0 0 0 0 0 0 0 0 0 0 0 0 0 0 0 0 0 0 0 0 0 0 0 0 0 0 0 0 0 0 0 0 0 0 0 0 0 0 0 0 0 0 0
0 0 0 0 0 0 0 0 0 0 0 0 0 0 0 0 0 0 0 0 0 0 0 0 0 0 0 0 0 0 0 0 0 0 0 0 0 0 0 0 0 0 0
0 0 0 0 0 0 0 0 0 0 0 0 0 0 0 0 0 0 0 0 0 0 0 0 0 0 0 0 0 0 0 0 0 0 0 0 0 0 0 0 0 0 0
0 0 0 0 0 0 0 0 0 0 0 0 0 0 0 0 0 0 0 0 0 0 0 0 0 0 0 0 0 0 0 0 0 0 0 0 0 0 0 0 0 0 0
0 0 0 0 0 0 0 0 0 0 0 0 0 0 0 0 0 0 0 0 0 0 0 0 0 0 0 0 0 0 0 0 0 0 0 0 0 0 0 0 0 0 0
0 0 0 0 0 0 0 0 0 0 0 0 0 0 0 0 0 0 0 0 0 0 0 0 0 0 0 0 0 0 0 0 0 0 0 0 0 0 0 0 0 0 0
Wind_Speed
15 15 16 15 15 15 14 15 14 13 13 14 14 14 14 15 14 14 13 14 14 12 11 11 10 9 7 5 5 4 3 3 3 2 2 3 5 6 5 5 6 7 7
14 15 16 16 16 16 17 16 14 14 14 14 14 14 15 15 15 16 16 16 16 15 14 13 12 9 9 7 6 6 5 4 4 4 3 3 5 5 6 7 6 6 8
13 15 16 17 18 18 17 15 15 14 14 14 14 15 15 15 15 15 16 16 16 15 15 15 14 12 11 8 7 6 5 4 4 4 4 3 4 4 6 7 8 8 8
14 15 17 18 19 18 16 15 15 15 15 16 16 16 15 15 15 15 15 15 14 14 14 13 13 13 12 11 8 7 6 6 5 5 5 5 5 5 5 6 7 7 7
14 16 19 17 16 15 15 14 14 14 15 15 15 14 13 13 13 15 15 15 15 14 13 12 12 12 12 10 7 8 8 6 6 5 5 5 5 5 5 5 7 8 9
16 17 16 14 13 13 13 12 13 13 13 13 14 14 15 13 19 24 18 15 14 15 13 11 10 10 12 14 13 12 12 9 8 6 6 7 9 7 6 6 7 8 8
14 13 11 11 12 13 12 12 14 14 13 14 14 15 15 17 25 26 21 14 14 14 13 12 9 8 9 8 12 15 14 15 14 9 9 10 9 7 7 8 8 9 10
12 11 10 11 12 11 12 14 14 12 12 13 13 14 13 14 23 25 21 12 11 11 11 12 11 10 9 10 9 10 11 12 14 12 11 10 9 7 7 8 10 11 11
10 11 10 10 10 10 12 13 11 10 10 10 9 10 10 11 20 23 22 9 9 9 9 9 9 9 13 15 11 10 11 10 13 17 17 15 15 14 11 7 8 8 9
8 7 7 8 8 10 10 9 8 7 7 7 6 7 8 8 18 23 22 9 9 8 7 8 11 13 15 18 13 11 12 11 8 8 11 13 12 11 13 10 8 8 8
3 4 5 6 7 7 6 6 6 6 6 6 6 6 7 9 17 24 23 11 11 10 8 8 9 17 19 20 18 12 14 10 7 8 8 7 7 6 7 7 7 7 8
4 5 5 5 5 6 7 6 7 7 7 7 7 7 7 8 12 20 25 19 15 11 9 8 9 17 19 20 16 16 17 12 7 7 7 7 6 6 6 6 7 7 8
6 6 6 6 6 6 7 8 7 7 6 6 7 7 7 7 11 20 22 22 19 10 8 11 13 16 16 14 16 16 11 7 7 7 7 7 5 4 4 4 5 6 7
7 7 6 7 7 6 5 6 6 6 6 6 7 7 7 7 8 9 9 11 14 12 8 8 12 14 11 8 6 8 6 5 6 6 6 4 3 3 3 3 4 4 4
7 6 6 6 6 6 5 4 4 4 5 6 6 6 7 7 10 13 10 8 8 7 6 4 5 5 6 5 4 4 4 4 5 4 4 3 3 3 3 3 3 3 4
6 5 4 5 5 5 5 4 5 4 4 5 5 5 4 6 9 14 15 14 13 12 7 5 6 6 6 6 6 5 4 4 4 3 3 3 3 4 3 3 3 4 5
6 5 4 4 4 4 4 4 4 4 5 4 3 4 5 6 8 10 12 12 12 12 7 5 6 5 5 5 5 4 4 3 2 3 3 3 3 3 3 4 4 4 5
6 6 5 4 4 3 3 3 3 3 3 2 4 4 3 4 6 7 9 8 5 5 4 5 5 5 4 4 4 4 3 3 3 3 3 3 3 3 3 4 4 4 4
6 4 4 4 4 4 3 3 3 3 3 3 2 4 5 4 5 4 3 3 4 3 3 3 3 3 4 4 4 3 3 3 3 3 3 3 3 3 3 3 3 4 4
6 8 6 5 4 4 3 3 3 3 3 2 2 2 2 1 2 2 2 1 2 2 2 3 3 3 3 3 3 3 4 4 4 4 3 3 3 3 4 4 4 4 4
5 6 7 6 5 4 4 3 3 3 2 2 2 2 2 1 2 2 1 1 1 1 2 2 3 3 3 3 3 4 5 4 4 4 3 3 3 3 3 4 4 4 4
5 5 5 5 5 5 4 4 3 3 3 2 2 2 3 2 1 1 1 1 1 1 1 1 2 2 3 3 4 4 4 4 4 4 4 4 4 4 4 4 4 4 4
6 6 6 5 5 5 4 4 3 3 2 2 1 1 1 1 1 0 0 0 0 0 1 1 2 2 2 3 3 4 5 5 4 4 4 4 4 4 4 5 5 5 5
6 6 5 5 4 4 4 3 3 2 2 1 1 0 0 0 1 1 1 1 1 2 2 2 3 4 5 4 4 4 4 4 4 4 6 5 5 4 5 5 5 6 5
5 5 5 4 3 3 2 2 2 1 1 0 1 1 1 2 2 2 2 2 3 3 4 4 3 5 7 8 7 6 7 8 7 5 5 6 6 6 6 6 5 5 5
5 4 4 3 2 2 1 1 1 1 1 2 2 2 3 3 3 3 3 3 4 4 5 5 6 7 8 7 9 10 10 11 10 10 7 6 7 7 7 6 7 6 6
Wind_Direction
213 213 215 216 215 213 209 206 201 194 188 188 187 184 183 182 181 181 177 171 169 162 160 157 151 149 146 144 143 145 152 170 192 182 201 218 244 256 262 271 285 289 289
212 214 216 217 215 215 214 210 202 196 193 190 188 187 187 184 181 181 175 173 170 166 164 161 158 156 157 156 160 165 169 181 199 214 216 233 249 266 279 283 282 280 280
210 213 216 217 217 217 216 210 202 197 193 191 189 192 190 186 184 184 178 175 173 170 168 168 165 164 166 168 171 172 172 178 198 215 233 240 257 263 279 277 275 274 273
211 213 218 219 218 218 216 210 204 198 195 194 194 195 193 188 185 182 178 174 172 170 171 171 170 174 173 172 175 181 177 181 192 214 235 246 255 260 267 277 281 277 279
212 216 222 221 219 217 213 208 203 200 201 197 196 197 193 188 187 183 177 174 171 168 169 171 174 177 177 174 176 184 183 189 194 214 232 246 251 250 254 266 278 290 286
215 221 223 218 213 212 209 202 200 201 200 196 198 196 196 196 192 188 178 173 170 169 170 170 171 173 183 191 201 200 195 193 201 212 228 240 252 255 258 263 276 289 291
217 222 218 212 209 209 203 201 204 203 200 200 201 199 201 203 194 190 181 170 171 174 171 168 171 177 182 196 214 219 219 223 219 220 238 245 256 259 264 266 266 272 277
218 221 214 211 210 203 202 206 207 203 202 203 203 203 203 205 198 189 175 167 169 171 171 172 174 177 189 195 207 219 225 228 230 231 241 251 257 264 257 264 276 280 280
220 221 214 207 203 199 203 206 205 202 203 204 200 199 198 198 195 185 172 159 164 166 168 173 179 185 199 203 208 220 230 238 242 240 245 254 258 258 257 260 262 267 277
223 215 201 191 191 197 200 198 195 191 195 191 190 187 184 180 188 183 172 165 167 169 175 186 195 201 207 209 213 219 231 236 228 238 248 255 257 259 257 251 257 262 273
165 158 166 174 178 180 174 170 164 170 171 170 165 161 166 172 188 187 183 178 178 180 187 194 204 213 218 220 220 225 235 238 231 235 240 242 242 242 243 243 245 250 261
118 125 132 139 147 145 147 152 157 162 164 164 160 162 170 177 188 195 194 192 183 188 197 200 207 213 221 226 227 231 237 237 232 233 237 238 237 236 235 235 240 246 254
99 103 111 117 122 135 144 149 153 160 168 170 172 176 178 182 195 201 202 202 196 196 204 208 209 215 221 227 232 234 232 228 230 235 240 243 241 237 230 231 237 246 257
104 107 114 119 122 126 134 146 155 166 173 175 180 183 181 184 191 196 200 204 207 211 212 208 212 218 220 217 218 223 219 221 227 238 244 243 224 215 224 229 241 244 256
106 109 114 114 120 123 123 135 155 166 180 179 184 186 186 192 197 194 190 196 198 202 186 180 186 192 200 200 201 201 203 203 215 225 227 222 217 225 233 229 238 245 253
112 110 110 113 113 117 119 108 104 112 152 175 175 178 189 198 192 197 202 204 203 194 186 199 203 206 209 207 206 203 200 203 205 208 214 221 227 233 240 233 233 244 258
110 111 108 109 114 120 127 131 126 104 101 108 134 166 173 180 189 194 197 200 201 195 202 202 202 200 200 198 198 198 194 184 183 200 212 218 224 231 237 239 241 249 256
92 89 95 102 109 117 123 126 131 136 131 96 62 79 120 155 173 182 184 178 187 192 199 195 193 190 189 187 186 184 179 174 182 196 202 206 215 225 233 238 240 247 259
77 78 79 85 87 91 97 101 105 111 113 107 87 59 48 79 91 99 147 175 182 184 184 182 178 175 172 171 171 174 179 182 184 192 198 199 202 216 228 235 242 239 247
65 65 70 78 80 80 82 91 94 99 103 105 97 65 30 62 96 76 67 102 150 166 171 171 161 158 161 166 170 174 181 185 186 195 200 200 203 214 223 226 234 239 241
68 65 62 67 65 67 71 76 84 94 101 99 77 52 72 88 107 107 101 95 112 133 148 155 156 162 166 169 176 187 196 199 197 200 204 205 203 211 223 230 231 233 247
64 64 60 62 62 60 61 64 72 82 94 98 76 49 67 77 93 110 114 107 96 100 132 162 170 172 178 185 191 197 203 207 205 204 207 204 205 213 217 222 230 235 236
67 72 70 64 64 67 64 61 64 72 77 76 73 61 52 60 73 124 160 180 195 208 196 206 200 194 193 203 212 214 216 216 211 204 205 208 210 213 214 221 222 229 235
63 68 71 69 65 64 65 64 62 66 69 71 66 40 356 294 263 258 256 253 251 241 229 227 232 230 223 221 221 221 227 229 218 211 211 215 217 217 216 221 227 228 233
59 62 63 61 60 60 61 61 57 51 37 316 286 274 270 263 258 257 253 249 249 247 242 237 234 233 231 229 229 229 233 234 226 211 205 213 221 220 219 222 224 224 225
58 59 58 55 52 47 39 24 351 306 285 277 271 268 266 263 262 260 255 248 246 246 245 240 236 235 237 236 236 234 233 233 228 217 209 212 216 218 212 217 220 222 225